Погода в Сомосомо

Фиджи     16°46′14″S   179°58′14″W
темп.,
°C
ветер,
м/с
пор.,
м/с
влажн.,
%
обл.,
%
осадки,
мм/ч
давл.,
гПа
погр.,
м
6 марта, сб
сб600:00+27с568499 1.0 1011546
03:00+27ссз4681100 0.0 1010625
06:00+27ссз3581100 0.0 1010527
09:00+28с5681100 0.0 1012615
12:00+28ссв6681100 0.0 1010456
15:00+28ссв7879100 0.0 1009433
18:00+28ссв6880100 0.0 1010488
21:00+28с6782100 0.0 1011542
7 марта, вс
вс700:00+28ссз4681100 0.0 1011642
03:00+27сз3479100 0.0 1010517
06:00+27ссз347888 0.0 1011428
09:00+27ссз3476100 0.0 1012368
12:00+28св4577100 0.0 1011289
15:00+28ссв6779100 0.0 1009407
18:00+28с6881100 0.0 1010316
21:00+28сз4484100 0.0 1012186
8 марта, пн
пн800:00+27з348388 0.2 1012173
03:00+27з338199 0.1 1010205
06:00+27зсз2277100 0.5 1012155
09:00+28зюз2275100 0.1 1013204
12:00+28ююв2274100 0.1 1012252
15:00+28юв3371100 0.0 1009416
18:00+28ююв3375100 0.0 1010570
21:00+28юв4480100 0.5 1012479
9 марта, вт
вт900:00+27юв2278100 1.3 1012369
03:00+27св117686 0.6 1009328
06:00+27з117777 0.6 1010256
09:00+27юз117755 0.2 1012198
12:00+27ююз337677 2.9 1011315
15:00+27ю447599 2.7 1009507
18:00+27юв778297 6.4 1010523
21:00+27ююв8883100 5.6 1012706
10 марта, ср
ср1000:00+27ююв6778100 6.8 1012768
03:00+27юв567893 0.1 1010764
06:00+26юв778559 2.9 1011677
09:00+26юв888282 1.6 1013709
12:00+26юв777990 1.7 1012701
15:00+26ююв777779 0.0 1010845
18:00+26ююв677257 0.0 1011835
21:00+26юв66709 0.0 1013874